sat.trackr.live / text

‹ back to catalog

STARLINK-11422 [DTC]

NORAD 61944 · 2024-209F

PAYLOAD ACTIVE UNKNOWN

§ Identity

Operator
Country
US
Launch date
2024-11-14
Launch site
AFWTR
Launch vehicle
Mass (kg)
RCS (m²)

Purposes: comms

External: N2YO · Heavens-Above · Gunter

§ Orbital elements

Epoch: 2026-05-24T22:59:46.699296Z

Period
91.73 min
Inclination
53.1574°
Eccentricity
0.0001109
Mean motion
15.69748136 rev/d
Perigee alt
358.9 km
Apogee alt
360.4 km
Semi-major
6,737.8 km
B*
1.5595e-3
RAAN
355.5117°
Arg perigee
69.9966°
Mean anomaly
290.1171°
Rev number
8,865

§ Raw data

STARLINK-11422 [DTC]1 61944U 24209F   26144.95817939  .00193104  00000+0  15595-2 0  99932 61944  53.1574 355.5117 0001109  69.9966 290.1171 15.69748136 88652

JSON: /api/v1/satellites/61944 · /tle

For live sub-satellite position, see the globe view (requires WebGL).

§ Visibility from observer

Set your observer location to see the next 7 days of passes ≥ 10°. The values pass through the URL so the page stays shareable.

No JS? Fill the form by hand. The geolocation button needs JavaScript.